• In Latvia
  • List of Countries
  • For 7 days
  • Water Temperature
  • Satellite Maps
  • Weather Map
  • Weather Widgets
  • user-avatar
    Login

    Hourly Weather Pinsa

    Today, 25 February, Sunday

    Time Temperature Precipitation Wind Pressure Humidity
    00:00 +30°C° 0 mm 2 mps 733 mmHg 49%
    01:00 +30°C° 0 mm 3 mps 733 mmHg 48%
    02:00 +30°C° 0 mm 3 mps 733 mmHg 48%
    03:00 +30°C° 0 mm 3 mps 733 mmHg 47%
    04:00 +29°C° 0 mm 3 mps 733 mmHg 44%
    05:00 +29°C° 0 mm 3 mps 733 mmHg 41%
    06:00 +28°C° 0 mm 3 mps 733 mmHg 38%
    07:00 +29°C° 0 mm 4 mps 734 mmHg 32%
    08:00 +32°C° 0 mm 5 mps 734 mmHg 26%
    09:00 +33°C° 0 mm 5 mps 735 mmHg 20%
    10:00 +34°C° 0 mm 5 mps 734 mmHg 20%
    11:00 +36°C° 0 mm 5 mps 734 mmHg 20%
    12:00 +37°C° 0 mm 4 mps 734 mmHg 20%
    13:00 +38°C° 0 mm 4 mps 733 mmHg 19%
    14:00 +39°C° 0 mm 3 mps 733 mmHg 19%
    15:00 +39°C° 0 mm 3 mps 732 mmHg 19%
    16:00 +39°C° 0 mm 2 mps 732 mmHg 19%
    17:00 +39°C° 0 mm 2 mps 732 mmHg 20%
    18:00 +38°C° 0 mm 2 mps 732 mmHg 20%
    19:00 +38°C° 0 mm 2 mps 732 mmHg 21%
    20:00 +37°C° 0 mm 2 mps 733 mmHg 22%
    21:00 +36°C° 0 mm 3 mps 733 mmHg 23%
    22:00 +36°C° 0 mm 3 mps 733 mmHg 23%
    23:00 +35°C° 0 mm 3 mps 733 mmHg 24%

    Tomorrow, 26 February, Monday

    Time Temperature Precipitation Wind Pressure Humidity
    00:00 +34°C° 0 mm 3 mps 733 mmHg 25%
    01:00 +34°C° 0 mm 3 mps 733 mmHg 25%
    02:00 +33°C° 0 mm 3 mps 732 mmHg 25%
    03:00 +31°C° 0 mm 3 mps 732 mmHg 26%
    04:00 +31°C° 0 mm 3 mps 732 mmHg 26%
    05:00 +31°C° 0 mm 3 mps 732 mmHg 26%
    06:00 +30°C° 0 mm 3 mps 732 mmHg 26%
    07:00 +32°C° 0 mm 4 mps 733 mmHg 25%
    08:00 +34°C° 0 mm 5 mps 734 mmHg 24%
    09:00 +35°C° 0 mm 5 mps 734 mmHg 23%
    10:00 +36°C° 0 mm 5 mps 734 mmHg 22%
    11:00 +37°C° 0 mm 5 mps 734 mmHg 21%
    12:00 +39°C° 0 mm 5 mps 734 mmHg 20%
    13:00 +39°C° 0 mm 5 mps 733 mmHg 20%
    14:00 +40°C° 0 mm 4 mps 732 mmHg 19%
    15:00 +40°C° 0 mm 4 mps 732 mmHg 19%
    16:00 +39°C° 0 mm 3 mps 732 mmHg 19%
    17:00 +38°C° 0 mm 3 mps 732 mmHg 20%
    18:00 +38°C° 0 mm 3 mps 732 mmHg 21%
    19:00 +37°C° 0 mm 2 mps 732 mmHg 21%
    20:00 +37°C° 0 mm 2 mps 733 mmHg 22%
    21:00 +36°C° 0 mm 2 mps 733 mmHg 23%
    22:00 +34°C° 0 mm 1 mps 733 mmHg 24%
    23:00 +34°C° 0 mm 1 mps 733 mmHg 25%

    Day after tomorrow, 27 February, Tuesday

    Time Temperature Precipitation Wind Pressure Humidity
    00:00 +33°C° 0 mm 1 mps 733 mmHg 26%
    01:00 +33°C° 0 mm 1 mps 732 mmHg 28%
    02:00 +32°C° 0 mm 1 mps 732 mmHg 29%
    03:00 +31°C° 0 mm 1 mps 731 mmHg 30%
    04:00 +30°C° 0 mm 1 mps 732 mmHg 31%
    05:00 +30°C° 0 mm 1 mps 732 mmHg 32%
    06:00 +29°C° 0 mm 1 mps 732 mmHg 33%
    07:00 +31°C° 0 mm 1 mps 733 mmHg 28%
    08:00 +33°C° 0 mm 1 mps 734 mmHg 24%
    09:00 +36°C° 0 mm 2 mps 734 mmHg 20%
    10:00 +37°C° 0 mm 2 mps 734 mmHg 18%
    11:00 +39°C° 0 mm 3 mps 733 mmHg 16%
    12:00 +40°C° 0 mm 3 mps 733 mmHg 15%
    13:00 +42°C° 0 mm 3 mps 732 mmHg 14%
    14:00 +42°C° 0 mm 3 mps 732 mmHg 14%
    15:00 +43°C° 0 mm 3 mps 731 mmHg 14%
    16:00 +42°C° 0 mm 3 mps 731 mmHg 14%
    17:00 +41°C° 0 mm 2 mps 731 mmHg 15%
    18:00 +40°C° 0 mm 2 mps 731 mmHg 15%
    19:00 +39°C° 0 mm 2 mps 732 mmHg 16%
    20:00 +37°C° 0 mm 1 mps 732 mmHg 18%
    21:00 +36°C° 0 mm 1 mps 733 mmHg 19%
    22:00 +35°C° 0 mm 1 mps 733 mmHg 19%
    23:00 +36°C° 0 mm 2 mps 733 mmHg 19%

    28 February, Wednesday

    Time Temperature Precipitation Wind Pressure Humidity
    00:00 +36°C° 0 mm 3 mps 733 mmHg 20%
    01:00 +35°C° 0 mm 2 mps 733 mmHg 21%
    02:00 +33°C° 0 mm 1 mps 732 mmHg 23%
    03:00 +32°C° 0 mm 1 mps 732 mmHg 25%
    04:00 +31°C° 0 mm 1 mps 732 mmHg 26%
    05:00 +31°C° 0 mm 1 mps 732 mmHg 26%
    06:00 +31°C° 0 mm 1 mps 732 mmHg 26%
    07:00 +34°C° 0 mm 2 mps 733 mmHg 23%
    08:00 +36°C° 0 mm 3 mps 734 mmHg 19%
    09:00 +38°C° 0 mm 4 mps 734 mmHg 16%
    10:00 +40°C° 0 mm 4 mps 734 mmHg 14%
    11:00 +42°C° 0 mm 5 mps 734 mmHg 13%
    12:00 +44°C° 0 mm 6 mps 734 mmHg 11%
    13:00 +43°C° 0 mm 5 mps 733 mmHg 11%
    14:00 +45°C° 0 mm 5 mps 732 mmHg 10%
    15:00 +45°C° 0 mm 5 mps 731 mmHg 10%
    16:00 +43°C° 0 mm 4 mps 731 mmHg 11%
    17:00 +43°C° 0 mm 4 mps 732 mmHg 11%
    18:00 +42°C° 0 mm 3 mps 732 mmHg 12%
    19:00 +40°C° 0 mm 3 mps 732 mmHg 13%
    20:00 +39°C° 0 mm 3 mps 733 mmHg 13%
    21:00 +38°C° 0 mm 3 mps 734 mmHg 14%
    22:00 +37°C° 0 mm 3 mps 733 mmHg 15%
    23:00 +36°C° 0 mm 3 mps 733 mmHg 16%

    1 March, Thursday

    Time Temperature Precipitation Wind Pressure Humidity
    00:00 +35°C° 0 mm 3 mps 733 mmHg 16%
    01:00 +35°C° 0 mm 3 mps 733 mmHg 17%
    02:00 +34°C° 0 mm 2 mps 732 mmHg 18%
    03:00 +32°C° 0 mm 2 mps 732 mmHg 19%
    04:00 +31°C° 0 mm 2 mps 732 mmHg 19%
    05:00 +31°C° 0 mm 2 mps 733 mmHg 20%
    06:00 +31°C° 0 mm 3 mps 733 mmHg 20%
    07:00 +34°C° 0 mm 4 mps 734 mmHg 18%
    08:00 +35°C° 0 mm 5 mps 734 mmHg 16%
    09:00 +38°C° 0 mm 6 mps 735 mmHg 14%
    10:00 +40°C° 0 mm 6 mps 734 mmHg 12%
    11:00 +43°C° 0 mm 7 mps 734 mmHg 11%
    12:00 +45°C° 0 mm 7 mps 733 mmHg 10%
    13:00 +45°C° 0 mm 6 mps 733 mmHg 9%
    14:00 +45°C° 0 mm 6 mps 732 mmHg 9%
    15:00 +46°C° 0 mm 5 mps 731 mmHg 8%
    16:00 +45°C° 0 mm 5 mps 731 mmHg 8%
    17:00 +43°C° 0 mm 4 mps 731 mmHg 9%
    18:00 +42°C° 0 mm 3 mps 731 mmHg 9%
    19:00 +40°C° 0 mm 3 mps 732 mmHg 10%
    20:00 +39°C° 0 mm 3 mps 732 mmHg 10%
    21:00 +37°C° 0 mm 4 mps 733 mmHg 11%
    22:00 +37°C° 0 mm 4 mps 733 mmHg 11%
    23:00 +36°C° 0 mm 4 mps 733 mmHg 12%

    2 March, Friday

    Time Temperature Precipitation Wind Pressure Humidity
    00:00 +35°C° 0 mm 4 mps 733 mmHg 12%
    01:00 +34°C° 0 mm 3 mps 732 mmHg 13%
    02:00 +34°C° 0 mm 3 mps 732 mmHg 13%
    03:00 +33°C° 0 mm 3 mps 732 mmHg 14%
    04:00 +33°C° 0 mm 3 mps 732 mmHg 14%
    05:00 +31°C° 0 mm 3 mps 732 mmHg 15%
    06:00 +31°C° 0 mm 3 mps 732 mmHg 16%
    07:00 +34°C° 0 mm 5 mps 733 mmHg 15%
    08:00 +36°C° 0 mm 6 mps 733 mmHg 14%
    09:00 +39°C° 0 mm 7 mps 734 mmHg 13%
    10:00 +41°C° 0 mm 7 mps 734 mmHg 12%
    11:00 +43°C° 0 mm 7 mps 733 mmHg 11%
    12:00 +45°C° 0 mm 7 mps 733 mmHg 10%
    13:00 +45°C° 0 mm 6 mps 732 mmHg 9%
    14:00 +45°C° 0 mm 6 mps 731 mmHg 9%
    15:00 +46°C° 0 mm 5 mps 731 mmHg 8%
    16:00 +45°C° 0 mm 5 mps 731 mmHg 8%
    17:00 +43°C° 0 mm 4 mps 731 mmHg 9%
    18:00 +42°C° 0 mm 4 mps 731 mmHg 9%
    19:00 +41°C° 0 mm 4 mps 732 mmHg 10%
    20:00 +40°C° 0 mm 4 mps 732 mmHg 10%
    21:00 +37°C° 0 mm 4 mps 733 mmHg 11%
    22:00 +37°C° 0 mm 4 mps 733 mmHg 12%
    23:00 +36°C° 0 mm 3 mps 732 mmHg 12%
    Show more